Mullan Pass, ID

8:08 AM PDT on October 16, 2019 (GMT -0700)
Mullan Pass

Weather History for KMLP - August, 2019

Change the Weather History Date:

Wednesday, August 14, 2019

  Actual Average (WUND) Record (WUND)
Temperature  
Mean Temperature 60 °F -  
Max Temperature 68 °F - - (-1)
Min Temperature 55 °F - - (-1)
Degree Days  
Heating Degree Days 4    
Growing Degree Days 10 (Base 50)    
Moisture  
Dew Point 41 °F    
Average Humidity 50    
Maximum Humidity 59    
Minimum Humidity 45    
Precipitation  
Precipitation 0.00 in - - ()
Sea Level Pressure  
Sea Level Pressure 30.01 in    
Wind  
Wind Speed 2 mph (WNW)    
Max Wind Speed 5 mph    
Max Gust Speed -    
Visibility 10 miles    
Events      
Averages and records for this station are not official NWS values.
T = Trace of Precipitation, MM = Missing Value Source: NWS Daily Summary

Daily Weather History Graph

Daily Weather History Graph

Search for Another Location

Airport or City:

Astronomy

Aug. 14, 2019 Rise Set
Actual Time 5:37 AM PDT 7:56 PM PDT
Civil Twilight 5:03 AM PDT 8:30 PM PDT
Nautical Twilight 4:21 AM PDT 9:12 PM PDT
Astronomical Twilight 3:32 AM PDT 10:00 PM PDT
Moon 7:57 PM PDT (8/14) 4:31 AM PDT (8/14)
Length of Visible Light 15h 26m
Length of Day
14h 19m
Full, 100% of the Moon is Illuminated
Aug 14
Full
Aug 15
Full
Aug 23
Last Quarter
Aug 30
New
Sep 5
First Quarter

Hourly Weather History & Observations

Time (PDT) Temp. Dew Point Humidity Pressure Visibility Wind Dir Wind Speed Gust Speed Precip Events Conditions
12:53 AM 57.9 °F 39.0 °F 49% 30.01 in 10.0 mi Calm Calm - N/A   Clear
1:53 AM 59.0 °F 39.9 °F 49% 29.99 in 10.0 mi WSW 3.5 mph - N/A   Clear
2:53 AM 57.0 °F 39.9 °F 53% 30.00 in 10.0 mi WNW 3.5 mph - N/A   Clear
3:53 AM 55.9 °F 37.9 °F 51% 30.00 in 10.0 mi Calm Calm - N/A   Clear
4:53 AM 55.0 °F 37.9 °F 53% 30.01 in 10.0 mi NNW 3.5 mph - N/A   Clear
5:53 AM 55.0 °F 39.0 °F 55% 30.01 in 10.0 mi Calm Calm - N/A   Clear
6:53 AM 55.0 °F 41.0 °F 59% 30.04 in 10.0 mi Calm Calm - N/A   Clear
7:53 AM 57.9 °F 41.0 °F 53% 30.04 in 10.0 mi Calm Calm - N/A   Clear
8:53 AM 60.1 °F 42.1 °F 51% 30.03 in 10.0 mi Calm Calm - N/A   Clear
9:53 AM 62.1 °F 41.0 °F 46% 30.04 in 10.0 mi WNW 4.6 mph - N/A   Clear
10:53 AM 64.0 °F 43.0 °F 46% 30.03 in 10.0 mi Variable 4.6 mph - N/A   Clear
11:53 AM 64.9 °F 43.0 °F 45% 30.03 in 10.0 mi Calm Calm - N/A   Partly Cloudy
12:53 PM 63.0 °F 45.0 °F 52% 30.03 in 10.0 mi Calm Calm - N/A   Mostly Cloudy
1:53 PM 61.0 °F 44.1 °F 54% 30.03 in 10.0 mi Variable 3.5 mph - N/A   Mostly Cloudy
2:53 PM 64.0 °F 45.0 °F 50% 30.02 in 10.0 mi Variable 3.5 mph - N/A   Scattered Clouds
3:53 PM 66.0 °F 44.1 °F 45% 30.01 in 10.0 mi North - - N/A   Scattered Clouds
4:53 PM 66.0 °F 44.1 °F 45% 30.00 in 10.0 mi Variable 4.6 mph - N/A   Mostly Cloudy
5:53 PM 64.0 °F 44.1 °F 48% 29.99 in 10.0 mi Calm Calm - N/A   Mostly Cloudy
6:53 PM 61.0 °F 42.1 °F 50% 30.00 in 10.0 mi WSW 4.6 mph - N/A   Clear
7:53 PM 60.1 °F 39.9 °F 47% 30.00 in 10.0 mi Variable 4.6 mph - N/A   Scattered Clouds
8:53 PM 59.0 °F 39.9 °F 49% 30.01 in 10.0 mi Variable 3.5 mph - N/A   Partly Cloudy
9:53 PM 59.0 °F 39.9 °F 49% 30.01 in 10.0 mi NNW 4.6 mph - N/A   Clear
10:53 PM 57.9 °F 39.9 °F 51% 30.00 in 10.0 mi NW 4.6 mph - N/A   Clear
11:53 PM 57.0 °F 39.0 °F 51% 29.99 in 10.0 mi NNW 3.5 mph - N/A   Clear